Date String (YYYY-MM-DD hh:mm:ss) UTC,Instrument flags,Ambient pressure (hPa),Sample flow (lpm),Bypass flow (lpm),Sample temperature (°C),Ambient temperature (°C),ASC tube jacket temperature (°C),LED temperature (°C),Box temperature (°C),Sample RH (%),Span deviation,Mass concentration (μg/m³),Mass concentration (μg/m³),Mass concentration (μg/m³)
DateTimeUTC,F1_M11,P_M11,Q1_M11,Q2_M11,T1_M11,T2_M11,T3_M11,T4_M11,T5_M11,U1_M11,ZSPAN_M11,X0_M11,X2_M11,X1_M11
2022-10-08 04:00:00,,0837.0,5.00,0.00,26.4,25.0,00.0,35.2,28.3,23.7,-001.4,0014.85,0010.04,0009.44
2022-10-08 04:01:00,,0836.9,5.00,0.00,26.4,25.0,00.0,35.2,28.3,23.6,-001.5,0015.45,0010.43,0009.76
2022-10-08 04:02:00,,0836.9,5.00,0.00,26.4,25.0,00.0,35.2,28.3,23.7,-001.3,0015.76,0010.62,0009.91
2022-10-08 04:03:00,,0836.9,5.00,0.00,26.4,25.0,00.0,35.2,28.3,23.7,-001.2,0015.90,0010.74,0010.03
2022-10-08 04:04:00,,0836.9,5.00,0.00,26.4,25.0,00.0,35.2,28.3,23.6,-001.4,0016.22,0011.04,0010.32
2022-10-08 04:05:00,,0837.0,5.02,0.00,26.4,25.0,00.0,35.2,28.3,23.6,-001.3,0016.73,0011.45,0010.65
2022-10-08 04:06:00,,0836.9,5.00,0.00,26.4,25.0,00.0,35.2,28.3,23.6,-001.4,0017.37,0011.88,0011.00
2022-10-08 04:07:00,,0836.9,4.99,0.00,26.4,25.0,00.0,35.2,28.3,23.6,-001.3,0017.50,0012.12,0011.22
2022-10-08 04:08:00,,0836.9,4.99,0.00,26.4,25.0,00.0,35.2,28.3,23.6,-001.5,0017.48,0012.03,0011.14
2022-10-08 04:09:00,,0836.9,5.00,0.00,26.4,25.0,00.0,35.2,28.3,23.7,-001.5,0017.56,0012.26,0011.32
2022-10-08 04:10:00,,0836.9,5.01,0.00,26.4,24.9,00.0,35.2,28.3,23.7,-001.3,0017.67,0012.47,0011.51
2022-10-08 04:11:00,,0836.8,5.00,0.00,26.4,24.9,00.0,35.2,28.3,23.7,-001.1,0018.71,0012.63,0011.60
2022-10-08 04:12:00,,0836.9,4.99,0.00,26.4,24.8,00.0,35.2,28.2,23.7,-001.2,0018.81,0012.65,0011.62
2022-10-08 04:13:00,,0836.9,5.01,0.00,26.3,24.6,00.0,35.2,28.1,23.8,-001.2,0019.12,0012.90,0011.81
2022-10-08 04:14:00,,0836.8,5.00,0.00,26.3,24.6,00.0,35.2,28.1,23.8,-001.3,0020.31,0013.17,0012.06
2022-10-08 04:15:00,,0836.8,4.99,0.00,26.3,24.5,00.0,35.1,28.1,23.9,-001.1,0020.49,0013.26,0012.15
2022-10-08 04:16:00,,0836.8,5.01,0.00,26.2,24.4,00.0,35.1,28.0,23.9,-000.9,0020.45,0013.29,0012.22
2022-10-08 04:17:00,,0836.8,4.99,0.00,26.2,24.5,00.0,35.1,28.0,24.2,-000.8,0020.67,0013.37,0012.28
2022-10-08 04:18:00,,0836.8,5.00,0.00,26.2,24.4,00.0,35.1,28.0,25.6,-000.8,0020.99,0013.45,0012.37
2022-10-08 04:19:00,,0836.8,5.01,0.00,26.2,24.4,00.0,35.1,28.0,25.1,-000.7,0021.72,0013.67,0012.55
2022-10-08 04:20:00,,0836.9,4.99,0.00,26.2,24.4,00.0,35.1,28.0,24.3,-000.7,0021.65,0013.74,0012.62
2022-10-08 04:21:00,,0836.8,5.00,0.00,26.2,24.5,00.0,35.0,28.0,24.2,-001.1,0021.03,0013.52,0012.45
2022-10-08 04:22:00,,0836.8,5.02,0.00,26.2,24.6,00.0,35.0,28.0,24.1,-001.1,0019.73,0013.24,0012.27
2022-10-08 04:23:00,,0836.8,5.00,0.00,26.2,24.6,00.0,35.0,28.0,24.1,-001.0,0019.23,0012.95,0012.03
2022-10-08 04:24:00,,0836.8,5.00,0.00,26.2,24.7,00.0,35.0,28.0,24.1,-001.0,0019.00,0012.69,0011.83
2022-10-08 04:25:00,,0836.8,4.99,0.00,26.2,24.7,00.0,35.0,28.1,24.0,-000.8,0017.99,0012.42,0011.57
2022-10-08 04:26:00,,0836.8,5.01,0.00,26.2,24.7,00.0,35.0,28.1,24.1,-000.8,0017.34,0012.03,0011.21
2022-10-08 04:27:00,,0836.8,5.00,0.00,26.2,24.7,00.0,35.0,28.1,24.0,-000.9,0017.10,0011.83,0011.00
2022-10-08 04:28:00,,0836.8,5.00,0.00,26.2,24.8,00.0,35.0,28.1,24.0,-000.8,0016.63,0011.51,0010.74
2022-10-08 04:29:00,,0836.8,5.00,0.00,26.2,24.8,00.0,35.0,28.1,24.0,-000.7,0015.87,0011.08,0010.35
2022-10-08 04:30:00,,0836.8,5.00,0.00,26.2,24.8,00.0,35.0,28.1,24.0,-000.8,0014.57,0010.63,0009.98
2022-10-08 04:31:00,,0836.8,5.00,0.00,26.2,24.8,00.0,35.0,28.1,24.1,-000.6,0014.16,0010.30,0009.69
2022-10-08 04:32:00,,0836.9,5.02,0.00,26.2,24.8,00.0,35.0,28.1,24.1,-000.4,0013.92,0010.10,0009.49
2022-10-08 04:33:00,,0836.9,5.00,0.00,26.2,24.8,00.0,35.0,28.1,24.2,-000.5,0013.82,0009.95,0009.34
2022-10-08 04:34:00,,0836.9,5.00,0.00,26.2,24.8,00.0,35.0,28.1,24.2,-000.4,0013.91,0009.86,0009.25
2022-10-08 04:35:00,,0836.9,5.00,0.00,26.2,24.8,00.0,35.0,28.1,24.1,-000.4,0013.57,0009.76,0009.17
2022-10-08 04:36:00,,0836.8,5.01,0.00,26.2,24.8,00.0,35.0,28.1,24.1,-000.4,0013.42,0009.68,0009.09
2022-10-08 04:37:00,,0836.8,5.00,0.00,26.2,24.8,00.0,35.0,28.1,24.1,-000.4,0013.41,0009.68,0009.07
2022-10-08 04:38:00,,0836.9,4.99,0.00,26.2,24.8,00.0,35.0,28.1,24.1,-000.5,0013.35,0009.51,0008.93
2022-10-08 04:39:00,,0836.8,5.00,0.00,26.3,24.8,00.0,35.0,28.1,24.1,-000.5,0013.12,0009.33,0008.78
2022-10-08 04:40:00,,0836.7,5.01,0.00,26.3,24.8,00.0,35.0,28.2,24.0,-001.0,0013.05,0009.32,0008.79
2022-10-08 04:41:00,,0836.7,5.00,0.00,26.3,24.8,00.0,35.0,28.2,24.0,-001.3,0013.11,0009.35,0008.84
2022-10-08 04:42:00,,0836.7,5.00,0.00,26.3,24.8,00.0,35.0,28.2,23.9,-001.6,0013.21,0009.36,0008.84
2022-10-08 04:43:00,,0836.6,5.00,0.00,26.3,24.9,00.0,35.0,28.2,23.9,-001.7,0013.19,0009.38,0008.87
2022-10-08 04:44:00,,0836.6,5.00,0.00,26.3,24.9,00.0,35.0,28.2,23.9,-001.8,0013.14,0009.40,0008.89
2022-10-08 04:45:00,,0836.6,4.99,0.00,26.3,24.9,00.0,35.0,28.2,23.9,-001.9,0012.94,0009.41,0008.91
2022-10-08 04:46:00,,0836.6,4.99,0.00,26.3,24.9,00.0,35.0,28.2,23.8,-002.0,0012.94,0009.41,0008.92
2022-10-08 04:47:00,,0836.6,5.00,0.00,26.3,24.9,00.0,35.0,28.2,23.8,-002.3,0012.79,0009.35,0008.90
2022-10-08 04:48:00,,0836.7,5.01,0.00,26.3,24.9,00.0,35.0,28.2,23.8,-002.4,0012.78,0009.33,0008.91
2022-10-08 04:49:00,,0836.7,5.01,0.00,26.3,24.9,00.0,35.0,28.2,23.8,-002.5,0012.69,0009.34,0008.92
2022-10-08 04:50:00,,0836.7,5.00,0.00,26.3,24.9,00.0,35.0,28.2,23.8,-002.5,0012.60,0009.30,0008.90
2022-10-08 04:51:00,,0836.7,5.00,0.00,26.3,24.8,00.0,35.0,28.2,23.9,-002.5,0012.85,0009.27,0008.86
2022-10-08 04:52:00,,0836.7,5.00,0.00,26.3,24.9,00.0,35.0,28.2,23.9,-002.4,0012.96,0009.27,0008.83
2022-10-08 04:53:00,,0836.7,5.01,0.00,26.3,24.9,00.0,35.0,28.2,23.9,-002.2,0012.81,0009.24,0008.83
2022-10-08 04:54:00,,0836.7,5.01,0.00,26.3,24.9,00.0,35.0,28.2,23.9,-002.2,0012.81,0009.22,0008.81
2022-10-08 04:55:00,,0836.7,5.00,0.00,26.3,24.9,00.0,35.0,28.2,23.8,-002.1,0012.70,0009.15,0008.74
2022-10-08 04:56:00,,0836.7,5.00,0.00,26.3,24.9,00.0,35.0,28.2,23.8,-002.1,0012.80,0009.15,0008.73
2022-10-08 04:57:00,,0836.7,5.01,0.00,26.3,24.9,00.0,35.0,28.2,23.8,-002.0,0012.98,0009.17,0008.70
2022-10-08 04:58:00,,0836.7,4.99,0.00,26.3,24.9,00.0,35.1,28.2,23.8,-001.9,0013.14,0009.22,0008.72
2022-10-08 04:59:00,,0836.7,4.99,0.00,26.3,24.8,00.0,35.1,28.2,23.9,-001.8,0013.03,0009.20,0008.71
